Flag for Australia Weather past 2 weeks in Eucla, Western Australia, Australia

Now
53 °F

Cool.


Feels Like: 49 °F
Forecast: 53 / 64 °F
Wind: 13 mph from North

Location: Eucla Amo

Current Time: Sep 3, 2014 at 8:56:13 AM

Latest Report: Sep 3, 2014 at 6:45 AM


Visibility: N/A

Pressure: 30.04 "Hg

Humidity: 47%

Dew point: 33 °F

Location of EuclaLocation

Historic Weather in Eucla — Graph

°F

Eucla temperature yesterday

Maximum temperature yesterday: 64 °F (at 12:45 PM)
Minimum temperature yesterday: 45 °F (at 5:45 AM)
Average temperature yesterday: 54 °F

Past Weeks' High & Low Weather Summary

 TemperatureHumidityPressure
High91 °F (Aug 29, 2:45 PM)96% (Aug 31, 6:45 PM)30.39 "Hg (Aug 31, 6:45 PM)
Low42 °F (Aug 24, 6:45 AM)7% (Aug 29, 2:45 PM)29.89 "Hg (Aug 30, 2:45 PM)
Average61 °F50%30.15 "Hg
* Reported Aug 19 6:45 AM — Sep 3 6:45 AM, Eucla, Weather by CustomWeather, © 2014

Note: Actual official high and low records may vary slightly from our data, if they occured in-between our weather recording intervals... More about our weather records

Advertising

Eucla weather history for previous 24 hours

 ConditionsComfort  
Time TempWeatherWind HumidityBarometerVisibility
6:45 AM
Sep 3
53 °FCool.13 mph47%30.04 "HgN/A
5:45 AM52 °FCool.14 mph53%30.03 "HgN/A
3:45 AM52 °FCool.10 mph61%30.08 "HgN/A
2:45 AM53 °FCool.13 mph63%30.10 "HgN/A
12:45 AM51 °FCool.7 mph71%30.16 "HgN/A
11:45 PM
Sep 2
52 °FCool.8 mph69%30.18 "HgN/A
9:45 PM54 °FCool.10 mph69%30.20 "HgN/A
8:45 PM55 °FCool.10 mph71%30.22 "HgN/A
6:45 PM56 °FCool.10 mph70%30.24 "HgN/A
5:45 PM56 °FCool.12 mph68%30.24 "HgN/A
3:45 PM59 °FOvercast.13 mph60%30.23 "Hg12 mi
2:45 PM60 °FRefreshingly cool.16 mph53%30.24 "HgN/A
12:45 PM64 °FMild.9 mph39%30.28 "HgN/A
11:45 AM63 °FMild.10 mph36%30.32 "HgN/A
9:45 AM59 °FPartly sunny.10 mph45%30.37 "Hg25 mi
8:45 AM56 °FRefreshingly cool.8 mph51%30.38 "HgN/A
Weather by CustomWeather, © 2014

See weather overviewHow to use our weather pages